This is the latest recevied weather packets stored in our database for station/object KG4ZVW. If no packets are shown the sender has not sent any weather packets the latest 10 day(s).
| Time | Temp. | Humidity | Pressure | Rain* | Wind** | Luminosity | Snow |
|---|---|---|---|---|---|---|---|
| 1777582098 | 33.89° C | 44% | 1008.4 hPa | 0 mm | - | 179 W/m² | - |
| 1777581819 | 33.89° C | 45% | 1008.4 hPa | 0 mm | - | 503 W/m² | - |
| 1777581511 | 33.89° C | 44% | 1008.4 hPa | 0 mm | - | 269 W/m² | - |
| 1777581209 | 33.33° C | 44% | 1008.4 hPa | 0 mm | - | 179 W/m² | - |
| 1777580904 | 33.33° C | 45% | 1008.4 hPa | 0 mm | - | 663 W/m² | - |
| 1777580598 | 33.89° C | 43% | 1008.6 hPa | 0 mm | - | 195 W/m² | - |
| 1777580313 | 34.44° C | 45% | 1008.6 hPa | 0 mm | - | 700 W/m² | - |
| 1777580011 | 33.89° C | 44% | 1008.6 hPa | 0 mm | - | 647 W/m² | - |
| 1777579705 | 33.89° C | 45% | 1008.8 hPa | 0 mm | - | 656 W/m² | - |
| 1777579399 | 33.89° C | 46% | 1008.8 hPa | 0 mm | - | 689 W/m² | - |
| 1777579113 | 33.89° C | 44% | 1008.8 hPa | 0 mm | - | 737 W/m² | - |
| 1777578813 | 33.33° C | 46% | 1008.9 hPa | 0 mm | - | 770 W/m² | - |
| 1777578507 | 32.78° C | 47% | 1008.9 hPa | 0 mm | - | 817 W/m² | - |
| 1777578202 | 33.33° C | 46% | 1008.9 hPa | 0 mm | - | 209 W/m² | - |
| 1777577897 | 33.89° C | 45% | 1008.9 hPa | 0 mm | - | 766 W/m² | - |
| 1777577613 | 33.33° C | 47% | 1008.9 hPa | 0 mm | - | 251 W/m² | - |
| 1777577309 | 33.33° C | 47% | 1008.9 hPa | 0 mm | - | 854 W/m² | - |
| 1777577004 | 33.33° C | 47% | 1009.4 hPa | 0 mm | - | 504 W/m² | - |
| 1777576703 | 33.89° C | 46% | 1009.4 hPa | 0 mm | - | 476 W/m² | - |
| 1777576417 | 33.33° C | 46% | 1009.4 hPa | 0 mm | - | 754 W/m² | - |
| 1777576111 | 32.78° C | 49% | 1009.4 hPa | 0 mm | - | 969 W/m² | - |
| 1777575808 | 33.33° C | 47% | 1009.4 hPa | 0 mm | - | 320 W/m² | - |
| 1777575502 | 33.89° C | 45% | 1009.4 hPa | 0 mm | - | 234 W/m² | - |
| 1777575202 | 33.33° C | 46% | 1009.7 hPa | 0 mm | - | 970 W/m² | - |
| 1777574898 | 32.78° C | 48% | 1009.7 hPa | 0 mm | - | 981 W/m² | - |
* Rain latest hour (hover to see other rain measurements)
** Current wind speed in m/s (hover to see current wind gust speed)